This demonstration page uses our WeatherBlox Daily Observations layout. Learn more.

39.92423, -83.80882

Hourly Observations for December 4, 2018

Temp ( °F °C ) Dew Point ( °F °C ) Humidity (%) Winds ( mph kmh ) Pressure ( in mb ) Visibility ( mi km ) Precip ( " mm )
12:13 am 00:13 Cloudy with Light Snow 34 1 30 -1 87 87 N 9 15 30.12 1020 9 14.48406 0 0.0254
12:34 am 00:34 Cloudy 34 1 30 -1 87 87 N 8 13 30.12 1020 10 16.0934 0 0.0254
12:56 am 00:56 Cloudy 33 0.6 31 -0.6 92 92 N 7 11 30.11 1020 10 16.0934 0 0.0254
1:56 am 01:56 Cloudy 33 0.6 31 -0.6 92 92 NNW 9 15 30.11 1020 10 16.0934 0 0
2:56 am 02:56 Cloudy 33 0.6 30 -1.1 89 89 N 9 15 30.13 1020 10 16.0934 0 0
3:56 am 03:56 Cloudy 32 0 29 -1.7 88 88 N 6 9 30.13 1020 10 16.0934 0 0
4:56 am 04:56 Cloudy 32 0 29 -1.7 88 88 N 6 9 30.14 1021 10 16.0934 0 0
5:26 am 05:26 Cloudy 32 0 30 -1 93 93 N 8 13 30.18 1022 10 16.0934 0 0
5:56 am 05:56 Cloudy 32 0 30 -1.1 92 92 N 6 9 30.16 1021 10 16.0934 0 0
6:56 am 06:56 Cloudy with Light Snow 32 0 30 -1.1 92 92 N 8 13 30.17 1022 7 11.26538 0 0.0254
7:10 am 07:10 Cloudy with Light Snow 30 -1 30 -1 100 100 N 7 11 30.21 1023 4 6.43736 0 0.0254
7:24 am 07:24 Cloudy with Light Snow 30 -1 30 -1 100 100 N 6 9 30.21 1023 5 8.0467 0 0.0254
7:56 am 07:56 Cloudy with Light Wintry Mix 31 -0.6 30 -1.1 96 96 NNW 6 9 30.18 1022 9 14.48406 0 0.0254
8:18 am 08:18 Cloudy 30 -1 30 -1 100 100 NNW 5 7 30.21 1023 10 16.0934 0 0.0254
8:56 am 08:56 Cloudy with Light Wintry Mix 31 -0.6 30 -1.1 96 96 N 6 9 30.19 1023 10 16.0934 0 0.0254
9:06 am 09:06 Cloudy 30 -1 30 -1 100 100 N 7 11 30.21 1023 10 16.0934 0 0.0254
9:56 am 09:56 Cloudy 32 0 30 -1.1 92 92 N 6 9 30.21 1023 10 16.0934 0 0.0254
10:03 am 10:03 Cloudy 32 0 30 -1 93 93 N 3 6 30.24 1024 10 16.0934 0 0
10:23 am 10:23 Cloudy 32 0 28 -2 87 87 N 6 9 30.24 1024 10 16.0934 0 0
10:56 am 10:56 Cloudy 33 0.6 29 -1.7 85 85 N 6 9 30.2 1023 10 16.0934 0 0
11:46 am 11:46 Cloudy 34 1 28 -2 81 81 NNW 5 7 30.21 1023 10 16.0934 0 0.0254
11:56 am 11:56 Cloudy 33 0.6 30 -1.1 89 89 NNW 5 7 30.17 1022 10 16.0934 0 0.0254
12:06 pm 12:06 Cloudy with Light Rain 34 1 28 -2 81 81 NNW 7 11 30.18 1022 10 16.0934 0 0.0254
12:56 pm 12:56 Cloudy 33 0.6 28 -2.2 82 82 N 8 13 30.14 1021 10 16.0934 0 0.0254
1:11 pm 13:11 Cloudy 34 1 28 -2 81 81 NNW 5 7 30.18 1022 10 16.0934 0 0
1:20 pm 13:20 Cloudy 34 1 28 -2 81 81 NW 9 15 30.18 1022 10 16.0934 0 0
1:51 pm 13:51 Cloudy 34 1 27 -3 75 75 NW 9 15 30.18 1022 10 16.0934 0 0
1:56 pm 13:56 Cloudy 33 0.6 27 -2.8 78 78 NW 9 15 30.14 1021 10 16.0934 0 0
2:03 pm 14:03 Cloudy 32 0 27 -3 80 80 NW 8 13 30.18 1022 10 16.0934 0 0
2:56 pm 14:56 Cloudy with Light Wintry Mix 31 -0.6 28 -2.2 89 89 NW 6 9 30.14 1021 9 14.48406 0 0.0254
3:18 pm 15:18 Cloudy with Light Wintry Mix 30 -1 27 -3 86 86 NW 8 13 30.15 1021 10 16.0934 0 0.0254
3:56 pm 15:56 Cloudy 31 -0.6 27 -2.8 85 85 NW 5 7 30.14 1021 10 16.0934 0 0.0254
4:12 pm 16:12 Cloudy with Light Wintry Mix 30 -1 27 -3 86 86 NW 8 13 30.15 1021 10 16.0934 0 0.0254
4:56 pm 16:56 Cloudy 31 -0.6 28 -2.2 89 89 WNW 12 19 30.15 1021 9 14.48406 0 0.0254
5:14 pm 17:14 Cloudy with Light Snow 30 -1 27 -3 86 86 NW 7 11 30.18 1022 9 14.48406 0 0.0254
5:56 pm 17:56 Cloudy 30 -1.1 27 -2.8 88 88 NW 6 9 30.14 1021 10 16.0934 0 0.0254
6:56 pm 18:56 Cloudy 30 -1.1 28 -2.2 92 92 W 7 11 30.15 1021 10 16.0934 0 0
7:56 pm 19:56 Cloudy 30 -1.1 28 -2.2 92 92 W 3 6 30.15 1021 10 16.0934 0 0
8:56 pm 20:56 Cloudy 30 -1.1 27 -2.8 88 88 WSW 3 6 30.14 1021 9 14.48406 0 0.0254
9:56 pm 21:56 Cloudy with Light Wintry Mix 30 -1.1 27 -2.8 88 88 SSW 3 6 30.13 1020 10 16.0934 0 0.0254
10:56 pm 22:56 Cloudy with Light Snow 30 -1.1 27 -2.8 88 88 SW 3 6 30.13 1020 8 12.87472 0 0.0254
11:17 pm 23:17 Cloudy with Light Snow 30 -1 27 -3 86 86 WSW 5 7 30.15 1021 9 14.48406 0 0.0254
11:56 pm 23:56 Cloudy with Light Snow 30 -1.1 28 -2.2 92 92 WSW 5 7 30.11 1020 9 14.48406 0 0.0254

Powered by AerisWeather